Location: Saratoga Springs
(43.0831°N, 73.7850°W)
Time: 13:07:18
(UTC-04:00)

Transit 4A - Pass Details

Date: 18 April 2024
Orbit: 871 x 971 km, 66.8° (Epoch: 20 May)

Event Time Altitude Azimuth Distance (km) Brightness Sun altitude
Rises 23:11:02 0° 326° (NW) 3,467 12.1 -30.7°
Reaches altitude 10° 23:13:32 10° 323° (NW) 2,527 11.0 -30.9°
Enters shadow 23:18:24 55° 281° (WNW) 1,051 8.2 -31.4°
